DW7831 Weather Reports


Display with metric or nautical units.
time (UTC)temp
F
wind
direction
speed
MPH
gust
MPH
rain 1hr
in
rain 24hr
in
rain mn
in
humidity
%
barometer
mb
20260906164550 65 16 2.0 0.0 0.00 0.00 0.01 47 1017.0
20260906163043 64 91 2.0 0.0 0.00 0.00 0.01 45 1016.9
20260906160037 64 31 4.0 0.0 0.00 0.00 0.01 47 1016.9
20260906154542 64 26 5.0 0.0 0.00 0.00 0.01 49 1017.0
20260906153032 64 10 3.0 0.0 0.00 0.00 0.01 46 1017.0
20260906150020 63 32 3.0 0.0 0.00 0.00 0.01 41 1016.7
20260906144518 63 12 1.0 0.0 0.00 0.00 0.01 29 1016.8
20260906143011 62 19 4.0 0.0 0.00 0.00 0.01 26 1016.7
20260906140007 60 43 1.0 0.0 0.00 0.00 0.01 100 1016.7
20260906134501 60 42 2.0 0.0 0.00 0.00 0.01 100 1016.6
20260906133103 59 39 2.0 0.0 0.00 0.00 0.01 100 1016.5
20260906130055 59 34 2.0 0.0 0.00 0.00 0.01 100 1016.4
20260906124544 59 34 2.0 0.0 0.00 0.00 0.01 100 1016.4
20260906123044 59 20 2.0 0.0 0.00 0.00 0.01 100 1016.3
20260906120032 58 19 0.0 0.0 0.00 0.00 0.01 100 1016.1
20260906114531 0 0.0 0.0 0.00 0.00 0.01 1016.1
20260906113024 0 0.0 0.0 0.00 0.00 0.01 1015.9
20260906110017 0 0.0 0.0 0.00 0.00 0.01 1015.4
20260906104531 57 22 0.0 0.0 0.00 0.00 0.01 100 1015.3
20260906103026 57 22 0.0 0.0 0.00 0.00 0.01 100 1015.2
20260906100005 57 22 0.0 0.0 0.00 0.00 0.01 100 1015.1
20260906094602 57 22 0.0 0.0 0.00 0.00 0.01 100 1014.9
20260906093054 57 22 0.0 0.0 0.00 0.00 0.01 100 1014.7
20260906091649 57 22 0.0 0.0 0.00 0.00 0.01 100 1014.5
20260906090047 57 22 0.0 0.0 0.00 0.00 0.01 100 1014.4
20260906084543 57 22 0.0 0.0 0.00 0.00 0.01 100 1014.4
20260906083039 57 22 0.0 0.0 0.00 0.00 0.01 100 1014.2
20260906081635 57 22 0.0 0.0 0.00 0.00 0.01 100 1014.0
20260906080031 57 22 0.0 0.0 0.00 0.00 0.01 100 1013.9
20260906074528 57 22 0.0 0.0 0.00 0.00 0.01 100 1014.0
20260906073024 58 22 0.0 0.0 0.00 0.00 0.01 100 1014.0
20260906071618 58 22 0.0 0.0 0.00 0.00 0.01 100 1013.9
20260906070022 58 22 0.0 0.0 0.00 0.00 0.01 100 1014.1
20260906064512 58 22 0.0 0.0 0.00 0.00 0.01 100 1014.1
20260906063006 59 22 0.0 0.0 0.00 0.00 0.01 100 1014.1
20260906061602 59 22 0.0 0.0 0.00 0.00 0.00 100 1014.0
20260906060100 59 22 0.0 0.0 0.00 0.00 0.00 100 1014.0
20260906054609 59 22 0.0 0.0 0.00 0.00 0.00 100 1014.4
20260906053051 59 22 0.0 0.0 0.00 0.00 0.00 100 1014.5
20260906051547 59 22 0.0 0.0 0.00 0.00 0.00 100 1014.7
20260906050044 59 22 0.0 0.0 0.00 0.00 0.00 100 1014.7
20260906044539 59 22 0.0 0.0 0.00 0.00 0.00 100 1014.7
20260906043035 60 22 0.0 0.0 0.00 0.00 0.00 100 1014.5
20260906041531 59 22 0.0 0.0 0.00 0.00 0.00 100 1014.5
20260906040040 59 22 0.0 0.0 0.00 0.00 0.00 100 1014.5
20260906034524 59 22 0.0 0.0 0.00 0.00 0.01 100 1014.4
20260906033020 59 22 0.0 0.0 0.00 0.00 0.01 100 1014.5
20260906031552 59 22 0.0 0.0 0.00 0.00 0.01 100 1014.3
20260906030014 59 22 0.0 0.0 0.00 0.00 0.01 100 1014.4
20260906024532 59 22 0.0 0.0 0.00 0.00 0.01 100 1014.2
20260906023004 60 22 0.0 0.0 0.00 0.00 0.01 100 1014.1
20260906021501 60 22 0.0 0.0 0.00 0.00 0.01 100 1014.1
20260906020055 60 22 0.0 0.0 0.00 0.00 0.01 100 1014.0
20260906014554 61 22 0.0 0.0 0.00 0.00 0.01 100 1014.0
20260906013050 61 22 0.0 0.0 0.00 0.00 0.01 100 1014.0
20260906011543 61 22 0.0 0.0 0.00 0.00 0.01 100 1013.9
20260906010048 61 22 0.0 0.0 0.00 0.00 0.01 100 1013.9
20260906004538 61 22 0.0 0.0 0.00 0.00 0.01 100 1013.8
20260906003032 61 22 1.0 0.0 0.00 0.00 0.01 100 1013.7
20260906001534 61 54 0.0 0.0 0.00 0.00 0.00 100 1013.7
20260906000026 62 63 0.0 0.0 0.00 0.00 0.00 100 1013.5
20260905234521 62 63 0.0 0.0 0.00 0.00 0.00 100 1013.4
20260905233017 62 63 0.0 0.0 0.00 0.00 0.00 100 1013.5
20260905231513 62 63 0.0 0.0 0.00 0.00 0.00 100 1013.5
20260905230017 63 63 0.0 0.0 0.00 0.00 0.00 5 1013.2
20260905224516 64 63 1.0 0.0 0.00 0.00 0.00 11 1013.3
20260905223101 64 60 1.0 0.0 0.00 0.00 0.00 24 1013.1
20260905221556 65 86 0.0 0.0 0.00 0.00 0.00 36 1012.7
20260905220054 66 98 1.0 0.0 0.00 0.00 0.00 48 1012.4
20260905214552 69 32 1.0 0.0 0.00 0.00 0.00 52 1012.3
20260905213048 70 313 0.0 0.0 0.00 0.00 0.00 51 1012.2
20260905211559 69 313 1.0 0.0 0.00 0.00 0.00 50 1012.1
20260905210051 68 313 1.0 0.0 0.00 0.00 0.00 50 1012.2
20260905204537 68 340 1.0 0.0 0.00 0.00 0.00 50 1012.1
20260905203029 68 338 1.0 0.0 0.00 0.00 0.00 50 1012.1
20260905201532 68 344 0.0 0.0 0.00 0.00 0.00 51 1012.0
20260905200022 68 355 1.0 0.0 0.00 0.00 0.00 53 1011.9
20260905194518 69 355 1.0 0.0 0.00 0.00 0.00 54 1011.9
20260905193014 69 12 1.0 0.0 0.00 0.00 0.00 54 1011.9
20260905191510 69 360 3.0 0.0 0.00 0.00 0.00 55 1011.8
20260905190007 70 16 2.0 0.0 0.00 0.00 0.00 54 1011.7
20260905184502 69 27 2.0 0.0 0.00 0.00 0.00 54 1011.5
20260905183059 69 46 2.0 0.0 0.00 0.00 0.00 54 1011.8
20260905181555 70 19 2.0 0.0 0.00 0.00 0.00 53 1011.8
20260905180100 70 24 2.0 0.0 0.00 0.00 0.00 53 1011.7
20260905174553 70 26 2.0 0.0 0.00 0.00 0.00 53 1011.7
20260905173057 69 27 1.0 0.0 0.00 0.00 0.00 53 1011.7
20260905171540 70 310 1.0 0.0 0.00 0.00 0.00 51 1011.8
20260905170035 68 39 2.0 0.0 0.00 0.00 0.00 51 1011.9